Location: Christchurch
(43.5000°S, 172.6000°E)
Time: 23:24:21
(UTC+12:00)

ISS - Visible Passes

Search period start: 19 August 2018 00:00
Search period end: 29 August 2018 00:00
Orbit: 401 x 409 km, 51.6° (Epoch: 19 August)

Date Brightness Start Highest point End Pass type
(mag) Time Alt. Az. Time Alt. Az. Time Alt. Az.
23 Aug -2.0 19:33:10 10° NNW 19:34:50 22° N 19:34:50 22° N visible
24 Aug -1.8 18:42:07 10° N 18:44:12 16° NE 18:45:30 13° ENE visible
24 Aug -1.3 20:16:59 10° WNW 20:18:12 21° WNW 20:18:12 21° WNW visible
25 Aug -3.8 19:24:58 10° NW 19:28:16 64° NE 19:28:44 55° E visible
26 Aug -2.9 18:33:12 10° NNW 18:36:17 34° NE 18:39:08 11° ESE visible
26 Aug -2.0 20:09:35 10° W 20:11:50 31° WSW 20:11:50 31° WSW visible
27 Aug -3.4 19:17:15 10° WNW 19:20:35 60° SSW 19:22:08 28° SE visible
28 Aug -3.8 18:25:07 10° NW 18:28:27 80° NE 18:31:50 10° ESE visible
28 Aug -1.9 20:02:20 10° WSW 20:05:01 26° SSW 20:05:01 26° SSW visible
